Wetterdaten: Donnerstag, 03.11.2016
Datum Zeit Temp. A. Aussentemp2 Feuchte A. Luftdruck Regen Wind Richtung Richtung Sonnenschein Helligkeit Solar
03.11.2016 00:00 5,8 C 9,6 C 90 % 1018,9 hPa 0,0 l/m 17,5 km/h (3 Bft) W45 270 0 min 800 lux 0 W/m
03.11.2016 00:04 5,8 C 9,6 C 90 % 1018,9 hPa 0,0 l/m 17,0 km/h (3 Bft) W-NW22.5 285 0 min 800 lux 0 W/m
03.11.2016 00:10 5,8 C 9,5 C 90 % 1018,9 hPa 0,0 l/m 17,5 km/h (3 Bft) W22.5 275 0 min 800 lux 0 W/m
03.11.2016 00:15 5,9 C 9,6 C 90 % 1018,9 hPa 0,0 l/m 15,0 km/h (3 Bft) W22.5 265 0 min 800 lux 0 W/m
03.11.2016 00:20 5,9 C 9,6 C 90 % 1018,9 hPa 0,0 l/m 14,4 km/h (3 Bft) W45 265 0 min 800 lux 0 W/m
03.11.2016 00:25 5,9 C 9,6 C 90 % 1018,9 hPa 0,0 l/m 18,5 km/h (3 Bft) W22.5 270 0 min 800 lux 0 W/m
03.11.2016 00:30 5,9 C 9,6 C 90 % 1018,9 hPa 0,0 l/m 18,0 km/h (3 Bft) W22.5 275 0 min 800 lux 0 W/m
03.11.2016 00:35 5,7 C 9,6 C 90 % 1018,9 hPa 0,0 l/m 15,5 km/h (3 Bft) W22.5 265 0 min 800 lux 0 W/m
03.11.2016 00:39 5,6 C 9,5 C 90 % 1018,9 hPa 0,0 l/m 14,3 km/h (3 Bft) W-SW22.5 255 0 min 800 lux 0 W/m
03.11.2016 00:44 5,6 C 9,5 C 90 % 1018,9 hPa 0,0 l/m 14,7 km/h (3 Bft) W22.5 265 0 min 800 lux 0 W/m
03.11.2016 00:49 5,6 C 9,5 C 90 % 1018,9 hPa 0,0 l/m 12,8 km/h (3 Bft) W22.5 280 0 min 800 lux 0 W/m
03.11.2016 00:54 5,6 C 9,5 C 90 % 1018,9 hPa 0,0 l/m 20,4 km/h (4 Bft) W45 275 0 min 0 lux 0 W/m
03.11.2016 01:00 5,8 C 9,4 C 90 % 1018,9 hPa 0,0 l/m 17,0 km/h (3 Bft) W22.5 265 0 min 0 lux 0 W/m
03.11.2016 01:05 5,7 C 9,3 C 90 % 1018,9 hPa 0,0 l/m 16,7 km/h (3 Bft) W-SW22.5 255 0 min 0 lux 0 W/m
03.11.2016 01:10 5,7 C 9,4 C 90 % 1018,9 hPa 0,0 l/m 13,1 km/h (3 Bft) W22.5 260 0 min 0 lux 0 W/m
03.11.2016 01:14 5,6 C 9,4 C 90 % 1018,9 hPa 0,0 l/m 13,5 km/h (3 Bft) W-SW22.5 255 0 min 0 lux 0 W/m
03.11.2016 01:19 5,6 C 9,4 C 90 % 1018,9 hPa 0,0 l/m 14,4 km/h (3 Bft) W-SW22.5 250 0 min 0 lux 0 W/m
03.11.2016 01:24 5,6 C 9,4 C 90 % 1018,9 hPa 0,0 l/m 10,5 km/h (2 Bft) W22.5 265 0 min 0 lux 0 W/m
03.11.2016 01:30 5,6 C 9,4 C 90 % 1018,9 hPa 0,0 l/m 10,5 km/h (2 Bft) W-SW22.5 240 0 min 0 lux 0 W/m
03.11.2016 01:35 5,6 C 9,4 C 90 % 1018,9 hPa 0,0 l/m 5,4 km/h (2 Bft) SW 230 0 min 0 lux 0 W/m
03.11.2016 01:40 5,6 C 9,5 C 90 % 1018,9 hPa 0,0 l/m 9,7 km/h (2 Bft) W-SW22.5 240 0 min 0 lux 0 W/m
03.11.2016 01:45 5,7 C 9,5 C 90 % 1018,9 hPa 0,0 l/m 13,5 km/h (3 Bft) W22.5 260 0 min 0 lux 0 W/m
03.11.2016 01:50 5,7 C 9,5 C 90 % 1018,9 hPa 0,0 l/m 13,3 km/h (3 Bft) W-SW45 255 0 min 0 lux 0 W/m
03.11.2016 01:55 5,7 C 9,4 C 90 % 1018,9 hPa 0,0 l/m 14,0 km/h (3 Bft) W-SW22.5 245 0 min 0 lux 0 W/m
03.11.2016 02:00 5,7 C 9,4 C 90 % 1018,9 hPa 0,0 l/m 7,9 km/h (2 Bft) W-SW 245 0 min 0 lux 0 W/m
03.11.2016 02:05 5,7 C 9,5 C 90 % 1018,9 hPa 0,0 l/m 13,1 km/h (3 Bft) W 265 0 min 0 lux 0 W/m
03.11.2016 02:10 5,7 C 9,3 C 90 % 1018,9 hPa 0,0 l/m 12,7 km/h (3 Bft) W-SW22.5 250 0 min 0 lux 0 W/m
03.11.2016 02:15 5,7 C 9,4 C 90 % 1018,9 hPa 0,0 l/m 14,6 km/h (3 Bft) W-SW22.5 240 0 min 0 lux 0 W/m
03.11.2016 02:20 5,7 C 9,3 C 90 % 1018,9 hPa 0,0 l/m 17,2 km/h (3 Bft) W-SW22.5 245 0 min 0 lux 0 W/m
03.11.2016 02:25 5,7 C 9,3 C 90 % 1018,9 hPa 0,0 l/m 6,9 km/h (2 Bft) SW 230 0 min 0 lux 0 W/m
03.11.2016 02:30 5,7 C 9,3 C 90 % 1018,9 hPa 0,0 l/m 10,1 km/h (2 Bft) W-SW22.5 240 0 min 0 lux 0 W/m
03.11.2016 02:35 5,6 C 9,3 C 90 % 1018,9 hPa 0,0 l/m 11,5 km/h (2 Bft) W22.5 260 0 min 0 lux 0 W/m
03.11.2016 02:39 5,7 C 9,4 C 90 % 1018,9 hPa 0,0 l/m 8,6 km/h (2 Bft) W-SW 255 0 min 0 lux 0 W/m
03.11.2016 02:44 5,7 C 9,3 C 90 % 1018,9 hPa 0,0 l/m 12,7 km/h (3 Bft) SW22.5 235 0 min 0 lux 0 W/m
03.11.2016 02:49 5,7 C 9,2 C 90 % 1018,9 hPa 0,0 l/m 11,0 km/h (2 Bft) W-SW22.5 240 0 min 0 lux 0 W/m
03.11.2016 02:55 5,7 C 9,1 C 90 % 1018,9 hPa 0,0 l/m 11,2 km/h (2 Bft) W-SW22.5 240 0 min 0 lux 0 W/m
03.11.2016 03:00 5,7 C 9,1 C 90 % 1018,9 hPa 0,0 l/m 14,6 km/h (3 Bft) W-SW22.5 240 0 min 0 lux 0 W/m
03.11.2016 03:05 5,7 C 9,1 C 90 % 1018,9 hPa 0,0 l/m 15,6 km/h (3 Bft) W-SW22.5 255 0 min 0 lux 0 W/m
03.11.2016 03:09 5,7 C 9,1 C 90 % 1018,9 hPa 0,0 l/m 11,6 km/h (2 Bft) SW22.5 235 0 min 0 lux 0 W/m
03.11.2016 03:14 5,8 C 8,9 C 90 % 1018,9 hPa 0,0 l/m 14,2 km/h (3 Bft) SW22.5 230 0 min 0 lux 0 W/m
03.11.2016 03:19 5,8 C 8,8 C 90 % 1019,9 hPa 0,0 l/m 17,7 km/h (3 Bft) SW22.5 235 0 min 0 lux 0 W/m
03.11.2016 03:24 5,8 C 8,8 C 90 % 1019,9 hPa 0,0 l/m 18,2 km/h (3 Bft) W-SW22.5 245 0 min 0 lux 0 W/m
03.11.2016 03:30 5,9 C 9,1 C 90 % 1019,9 hPa 0,0 l/m 14,0 km/h (3 Bft) W-SW22.5 245 0 min 0 lux 0 W/m
03.11.2016 03:35 5,9 C 9,2 C 91 % 1019,9 hPa 0,0 l/m 10,4 km/h (2 Bft) SW 230 0 min 0 lux 0 W/m
03.11.2016 03:40 5,9 C 9,2 C 90 % 1019,9 hPa 0,0 l/m 10,5 km/h (2 Bft) W-SW22.5 245 0 min 0 lux 0 W/m
03.11.2016 03:45 6,0 C 9,2 C 91 % 1019,9 hPa 0,0 l/m 13,8 km/h (3 Bft) W-SW22.5 250 0 min 0 lux 0 W/m
03.11.2016 03:50 6,0 C 9,3 C 91 % 1019,9 hPa 0,0 l/m 8,4 km/h (2 Bft) W-SW 250 0 min 0 lux 0 W/m
03.11.2016 03:55 6,0 C 9,2 C 91 % 1019,9 hPa 0,0 l/m 13,6 km/h (3 Bft) W45 260 0 min 0 lux 0 W/m
03.11.2016 03:59 6,0 C 9,2 C 91 % 1019,9 hPa 0,0 l/m 9,1 km/h (2 Bft) W22.5 265 0 min 0 lux 0 W/m
03.11.2016 04:05 6,1 C 9,2 C 91 % 1019,9 hPa 0,0 l/m 13,6 km/h (3 Bft) SW22.5 235 0 min 0 lux 0 W/m
03.11.2016 04:10 6,1 C 9,1 C 91 % 1019,9 hPa 0,0 l/m 16,0 km/h (3 Bft) W-SW22.5 250 0 min 0 lux 0 W/m
03.11.2016 04:14 6,1 C 9,1 C 91 % 1019,9 hPa 0,0 l/m 10,8 km/h (2 Bft) W-SW22.5 250 0 min 0 lux 0 W/m
03.11.2016 04:19 6,1 C 9,3 C 91 % 1019,9 hPa 0,0 l/m 10,6 km/h (2 Bft) W-SW22.5 245 0 min 0 lux 0 W/m
03.11.2016 04:24 6,2 C 9,3 C 91 % 1019,9 hPa 0,0 l/m 11,5 km/h (2 Bft) W-SW22.5 240 0 min 0 lux 0 W/m
03.11.2016 04:30 6,2 C 9,3 C 91 % 1019,9 hPa 0,0 l/m 9,8 km/h (2 Bft) W-SW22.5 250 0 min 0 lux 0 W/m
03.11.2016 04:35 6,2 C 9,3 C 91 % 1019,9 hPa 0,0 l/m 9,6 km/h (2 Bft) W-SW 250 0 min 0 lux 0 W/m
03.11.2016 04:40 6,2 C 9,3 C 91 % 1019,9 hPa 0,0 l/m 6,1 km/h (2 Bft) W-SW 250 0 min 0 lux 0 W/m
03.11.2016 04:45 6,2 C 9,3 C 91 % 1019,9 hPa 0,0 l/m 10,8 km/h (2 Bft) SW 230 0 min 0 lux 0 W/m
03.11.2016 04:50 6,1 C 9,2 C 91 % 1019,9 hPa 0,0 l/m 11,6 km/h (2 Bft) SW 235 0 min 0 lux 0 W/m
03.11.2016 04:55 6,2 C 9,2 C 91 % 1019,9 hPa 0,0 l/m 11,6 km/h (2 Bft) SW 235 0 min 0 lux 0 W/m
03.11.2016 04:59 6,1 C 9,4 C 90 % 1019,9 hPa 0,0 l/m 6,3 km/h (2 Bft) W-SW 240 0 min 0 lux 0 W/m
03.11.2016 05:05 6,1 C 9,3 C 90 % 1019,9 hPa 0,0 l/m 6,1 km/h (2 Bft) W-SW 240 0 min 0 lux 0 W/m
03.11.2016 05:10 6,2 C 9,3 C 91 % 1019,9 hPa 0,0 l/m 9,8 km/h (2 Bft) W-SW22.5 240 0 min 0 lux 0 W/m
03.11.2016 05:15 6,1 C 9,1 C 90 % 1019,9 hPa 0,0 l/m 12,0 km/h (2 Bft) SW22.5 230 0 min 0 lux 0 W/m
03.11.2016 05:20 6,1 C 9,1 C 90 % 1019,9 hPa 0,0 l/m 13,9 km/h (3 Bft) SW22.5 235 0 min 0 lux 0 W/m
03.11.2016 05:25 6,0 C 9,2 C 90 % 1019,9 hPa 0,0 l/m 10,4 km/h (2 Bft) W-SW 240 0 min 0 lux 0 W/m
03.11.2016 05:24 6,0 C 9,2 C 90 % 1019,9 hPa 0,0 l/m 10,4 km/h (2 Bft) W-SW 240 0 min 0 lux 0 W/m
03.11.2016 05:30 6,0 C 9,3 C 90 % 1019,9 hPa 0,0 l/m 5,9 km/h (2 Bft) W-SW 245 0 min 0 lux 0 W/m
03.11.2016 05:35 6,0 C 9,3 C 90 % 1019,9 hPa 0,0 l/m 2,2 km/h (1 Bft) W-SW22.5 240 0 min 0 lux 0 W/m
03.11.2016 05:40 6,0 C 9,2 C 90 % 1019,9 hPa 0,0 l/m 11,1 km/h (2 Bft) SW45 215 0 min 0 lux 0 W/m
03.11.2016 05:45 6,0 C 9,1 C 90 % 1019,9 hPa 0,0 l/m 14,5 km/h (3 Bft) SW22.5 220 0 min 0 lux 0 W/m
03.11.2016 05:49 5,9 C 9,2 C 90 % 1019,9 hPa 0,0 l/m 11,2 km/h (2 Bft) SW22.5 225 0 min 0 lux 0 W/m
03.11.2016 05:54 5,9 C 9,2 C 90 % 1019,9 hPa 0,0 l/m 13,0 km/h (3 Bft) SW22.5 225 0 min 0 lux 0 W/m
03.11.2016 05:59 5,9 C 9,1 C 90 % 1019,9 hPa 0,0 l/m 12,3 km/h (2 Bft) SW22.5 225 0 min 0 lux 0 W/m
03.11.2016 06:05 5,9 C 9,1 C 90 % 1019,9 hPa 0,0 l/m 13,6 km/h (3 Bft) SW45 220 0 min 0 lux 0 W/m
03.11.2016 06:10 6,0 C 9,1 C 90 % 1019,9 hPa 0,0 l/m 12,7 km/h (3 Bft) SW22.5 215 0 min 0 lux 0 W/m
03.11.2016 06:15 5,9 C 9,2 C 90 % 1019,9 hPa 0,0 l/m 9,0 km/h (2 Bft) SW22.5 225 0 min 0 lux 0 W/m
03.11.2016 06:20 6,0 C 9,3 C 90 % 1019,9 hPa 0,0 l/m 6,5 km/h (2 Bft) S-SW 195 0 min 0 lux 0 W/m
03.11.2016 06:24 6,0 C 9,3 C 90 % 1019,9 hPa 0,0 l/m 6,6 km/h (2 Bft) S 190 0 min 0 lux 0 W/m
03.11.2016 06:29 6,0 C 9,1 C 90 % 1019,9 hPa 0,0 l/m 9,0 km/h (2 Bft) SW22.5 230 0 min 0 lux 0 W/m
03.11.2016 06:34 6,0 C 9,1 C 90 % 1019,9 hPa 0,0 l/m 11,5 km/h (2 Bft) SW22.5 230 0 min 0 lux 0 W/m
03.11.2016 06:39 6,0 C 9,1 C 90 % 1019,9 hPa 0,0 l/m 13,5 km/h (3 Bft) SW22.5 225 0 min 0 lux 0 W/m
03.11.2016 06:45 6,0 C 9,1 C 90 % 1019,9 hPa 0,0 l/m 12,1 km/h (2 Bft) SW22.5 225 0 min 0 lux 0 W/m
03.11.2016 06:50 6,0 C 9,0 C 90 % 1019,9 hPa 0,0 l/m 13,6 km/h (3 Bft) SW22.5 225 0 min 0 lux 0 W/m
03.11.2016 06:55 6,0 C 9,0 C 90 % 1019,9 hPa 0,0 l/m 13,7 km/h (3 Bft) SW22.5 225 0 min 0 lux 0 W/m
03.11.2016 07:00 6,0 C 9,0 C 90 % 1019,9 hPa 0,0 l/m 13,1 km/h (3 Bft) SW22.5 220 0 min 0 lux 0 W/m
03.11.2016 07:04 6,0 C 9,0 C 90 % 1019,9 hPa 0,0 l/m 10,7 km/h (2 Bft) SW67.5 220 0 min 0 lux 0 W/m
03.11.2016 07:09 6,0 C 9,0 C 90 % 1019,9 hPa 0,0 l/m 12,9 km/h (3 Bft) SW22.5 230 0 min 0 lux 0 W/m
03.11.2016 07:14 6,0 C 8,9 C 90 % 1019,9 hPa 0,0 l/m 14,3 km/h (3 Bft) SW22.5 230 0 min 0 lux 0 W/m
03.11.2016 07:20 6,0 C 9,0 C 90 % 1019,9 hPa 0,0 l/m 11,1 km/h (2 Bft) SW22.5 225 0 min 0 lux 0 W/m
03.11.2016 07:25 6,0 C 9,1 C 90 % 1019,9 hPa 0,0 l/m 13,0 km/h (3 Bft) W-SW22.5 240 0 min 0 lux 0 W/m
03.11.2016 07:30 6,0 C 9,0 C 90 % 1019,9 hPa 0,0 l/m 10,8 km/h (2 Bft) SW22.5 230 0 min 140 lux 0 W/m
03.11.2016 07:35 6,0 C 9,0 C 90 % 1019,9 hPa 0,0 l/m 13,9 km/h (3 Bft) SW22.5 230 0 min 140 lux 0 W/m
03.11.2016 07:40 6,0 C 9,0 C 90 % 1019,9 hPa 0,0 l/m 14,3 km/h (3 Bft) SW45 225 0 min 140 lux 1 W/m
03.11.2016 07:44 6,0 C 9,1 C 90 % 1019,9 hPa 0,0 l/m 10,6 km/h (2 Bft) SW45 215 0 min 140 lux 1 W/m
03.11.2016 07:49 6,0 C 8,9 C 90 % 1019,9 hPa 0,0 l/m 13,5 km/h (3 Bft) SW22.5 230 0 min 140 lux 1 W/m
03.11.2016 07:54 6,0 C 9,0 C 90 % 1019,9 hPa 0,0 l/m 10,7 km/h (2 Bft) SW22.5 230 0 min 140 lux 1 W/m
03.11.2016 07:59 6,0 C 9,1 C 90 % 1019,9 hPa 0,0 l/m 9,4 km/h (2 Bft) SW22.5 215 0 min 140 lux 1 W/m
03.11.2016 08:05 6,0 C 9,2 C 90 % 1019,9 hPa 0,0 l/m 10,8 km/h (2 Bft) S-SW22.5 210 0 min 140 lux 1 W/m
03.11.2016 08:10 6,0 C 9,2 C 90 % 1020,9 hPa 0,0 l/m 12,5 km/h (2 Bft) SW22.5 225 0 min 140 lux 1 W/m
03.11.2016 08:15 6,0 C 8,9 C 90 % 1020,9 hPa 0,0 l/m 11,1 km/h (2 Bft) W-SW22.5 240 0 min 140 lux 1 W/m
03.11.2016 08:19 6,0 C 7,2 C 90 % 1020,9 hPa 0,0 l/m 13,6 km/h (3 Bft) SW45 215 0 min 1,51 klux 10 W/m
03.11.2016 08:24 6,1 C 7,6 C 90 % 1020,9 hPa 0,0 l/m 10,0 km/h (2 Bft) SW22.5 220 0 min 1,51 klux 10 W/m
03.11.2016 08:29 6,1 C 7,3 C 90 % 1020,9 hPa 0,0 l/m 11,1 km/h (2 Bft) SW22.5 230 0 min 1,51 klux 10 W/m
03.11.2016 08:34 6,2 C 7,5 C 90 % 1020,9 hPa 0,0 l/m 13,0 km/h (3 Bft) SW22.5 225 0 min 1,51 klux 10 W/m
03.11.2016 08:40 6,2 C 7,2 C 90 % 1020,9 hPa 0,0 l/m 10,7 km/h (2 Bft) SW22.5 220 0 min 1,51 klux 10 W/m
03.11.2016 08:45 6,3 C 7,2 C 90 % 1020,9 hPa 0,0 l/m 12,3 km/h (2 Bft) SW22.5 225 0 min 1,51 klux 10 W/m
03.11.2016 08:50 6,3 C 7,4 C 90 % 1020,9 hPa 0,0 l/m 9,7 km/h (2 Bft) SW45 220 0 min 1,51 klux 10 W/m
03.11.2016 08:55 6,4 C 8,3 C 90 % 1020,9 hPa 0,0 l/m 11,2 km/h (2 Bft) SW22.5 225 0 min 1,51 klux 10 W/m
03.11.2016 09:00 6,4 C 8,3 C 90 % 1020,9 hPa 0,0 l/m 10,0 km/h (2 Bft) SW22.5 220 0 min 1,51 klux 10 W/m
03.11.2016 09:04 6,4 C 8,4 C 90 % 1020,9 hPa 0,0 l/m 12,4 km/h (2 Bft) SW22.5 220 0 min 1,51 klux 10 W/m
03.11.2016 09:09 6,4 C 8,4 C 90 % 1020,9 hPa 0,0 l/m 12,0 km/h (2 Bft) SW22.5 225 0 min 1,51 klux 10 W/m
03.11.2016 09:15 6,4 C 8,5 C 90 % 1020,9 hPa 0,0 l/m 11,5 km/h (2 Bft) SW22.5 230 0 min 1,51 klux 10 W/m
03.11.2016 09:20 6,5 C 8,5 C 90 % 1020,9 hPa 0,0 l/m 12,9 km/h (3 Bft) SW22.5 225 0 min 1,51 klux 10 W/m
03.11.2016 09:25 6,5 C 8,3 C 90 % 1020,9 hPa 0,0 l/m 14,9 km/h (3 Bft) SW22.5 220 0 min 1,51 klux 10 W/m
03.11.2016 09:30 6,6 C 8,3 C 90 % 1020,9 hPa 0,0 l/m 13,8 km/h (3 Bft) SW22.5 225 0 min 3,77 klux 26 W/m
03.11.2016 09:35 6,6 C 7,8 C 90 % 1020,9 hPa 0,0 l/m 10,9 km/h (2 Bft) SW22.5 215 0 min 3,77 klux 26 W/m
03.11.2016 09:39 6,6 C 7,7 C 90 % 1020,9 hPa 0,0 l/m 10,3 km/h (2 Bft) SW22.5 215 0 min 3,77 klux 26 W/m
03.11.2016 09:44 6,7 C 7,5 C 89 % 1020,9 hPa 0,0 l/m 12,2 km/h (2 Bft) S-SW45 210 0 min 5,26 klux 36 W/m
03.11.2016 09:49 6,7 C 7,6 C 89 % 1020,9 hPa 0,0 l/m 10,1 km/h (2 Bft) SW45 220 0 min 5,26 klux 36 W/m
03.11.2016 09:54 6,8 C 7,5 C 89 % 1020,9 hPa 0,0 l/m 11,8 km/h (2 Bft) SW22.5 225 0 min 5,26 klux 36 W/m
03.11.2016 10:00 6,8 C 7,6 C 89 % 1020,9 hPa 0,0 l/m 12,1 km/h (2 Bft) SW22.5 220 0 min 5,26 klux 36 W/m
03.11.2016 10:05 6,8 C 7,6 C 89 % 1020,9 hPa 0,0 l/m 14,7 km/h (3 Bft) SW22.5 215 0 min 5,26 klux 36 W/m
03.11.2016 10:10 6,8 C 7,5 C 89 % 1020,9 hPa 0,0 l/m 15,0 km/h (3 Bft) SW22.5 215 0 min 5,26 klux 36 W/m
03.11.2016 10:14 6,8 C 7,5 C 89 % 1020,9 hPa 0,0 l/m 14,7 km/h (3 Bft) SW22.5 225 0 min 8,93 klux 61 W/m
03.11.2016 10:19 6,9 C 8,0 C 88 % 1020,9 hPa 0,0 l/m 11,0 km/h (2 Bft) SW45 215 0 min 8,93 klux 61 W/m
03.11.2016 10:24 6,9 C 7,9 C 88 % 1020,9 hPa 0,0 l/m 13,8 km/h (3 Bft) SW45 220 0 min 8,93 klux 61 W/m
03.11.2016 10:30 6,9 C 7,9 C 88 % 1020,9 hPa 0,0 l/m 14,0 km/h (3 Bft) SW45 215 0 min 8,93 klux 61 W/m
03.11.2016 10:35 6,8 C 7,8 C 87 % 1020,9 hPa 0,0 l/m 15,2 km/h (3 Bft) SW22.5 230 0 min 8,93 klux 61 W/m
03.11.2016 10:40 7,0 C 8,0 C 87 % 1020,9 hPa 0,0 l/m 12,7 km/h (3 Bft) SW22.5 235 0 min 8,93 klux 61 W/m
03.11.2016 10:45 7,2 C 8,1 C 87 % 1020,8 hPa 0,0 l/m 13,6 km/h (3 Bft) SW22.5 230 0 min 8,87 klux 61 W/m
03.11.2016 10:50 7,2 C 8,2 C 87 % 1020,8 hPa 0,0 l/m 13,3 km/h (3 Bft) S-SW22.5 205 0 min 8,87 klux 61 W/m
03.11.2016 10:55 7,3 C 8,1 C 87 % 1020,8 hPa 0,0 l/m 12,6 km/h (3 Bft) S-SW45 205 0 min 8,87 klux 61 W/m
03.11.2016 10:59 7,3 C 8,1 C 87 % 1020,8 hPa 0,0 l/m 14,3 km/h (3 Bft) S-SW45 210 0 min 8,87 klux 61 W/m
03.11.2016 11:05 7,2 C 8,1 C 87 % 1020,8 hPa 0,0 l/m 11,6 km/h (2 Bft) S-SW22.5 205 0 min 8,87 klux 61 W/m
03.11.2016 11:10 7,2 C 8,3 C 87 % 1020,8 hPa 0,0 l/m 15,0 km/h (3 Bft) S-SW45 205 0 min 8,87 klux 61 W/m
03.11.2016 11:15 7,2 C 8,0 C 87 % 1020,8 hPa 0,0 l/m 15,6 km/h (3 Bft) SW67.5 235 0 min 12,1 klux 83 W/m
03.11.2016 11:20 7,3 C 7,9 C 87 % 1020,8 hPa 0,0 l/m 16,1 km/h (3 Bft) SW45 225 0 min 12,1 klux 83 W/m
03.11.2016 11:25 7,4 C 8,0 C 86 % 1020,8 hPa 0,0 l/m 12,0 km/h (2 Bft) SW45 230 0 min 12,1 klux 83 W/m
03.11.2016 11:29 7,4 C 8,1 C 86 % 1020,8 hPa 0,0 l/m 14,0 km/h (3 Bft) SW22.5 235 0 min 11,4 klux 78 W/m
03.11.2016 11:34 7,5 C 8,1 C 86 % 1020,8 hPa 0,0 l/m 16,3 km/h (3 Bft) SW45 230 0 min 13,3 klux 91 W/m
03.11.2016 11:39 7,6 C 8,1 C 86 % 1020,8 hPa 0,0 l/m 15,0 km/h (3 Bft) SW22.5 230 0 min 13,3 klux 91 W/m
03.11.2016 11:45 7,6 C 8,1 C 85 % 1020,8 hPa 0,0 l/m 15,6 km/h (3 Bft) SW45 225 0 min 13,2 klux 90 W/m
03.11.2016 11:50 7,7 C 8,2 C 85 % 1020,8 hPa 0,0 l/m 17,8 km/h (3 Bft) SW67.5 215 0 min 15,0 klux 103 W/m
03.11.2016 11:55 7,8 C 8,2 C 85 % 1020,8 hPa 0,0 l/m 17,9 km/h (3 Bft) SW45 225 0 min 15,8 klux 108 W/m
03.11.2016 12:00 8,0 C 8,2 C 84 % 1020,8 hPa 0,0 l/m 14,1 km/h (3 Bft) SW45 220 0 min 15,8 klux 108 W/m
03.11.2016 12:04 8,0 C 8,5 C 84 % 1020,8 hPa 0,0 l/m 12,1 km/h (2 Bft) SW22.5 225 0 min 13,2 klux 90 W/m
03.11.2016 12:09 8,0 C 8,5 C 84 % 1020,8 hPa 0,0 l/m 14,0 km/h (3 Bft) S-SW45 205 0 min 13,2 klux 90 W/m
03.11.2016 12:15 8,1 C 8,6 C 84 % 1020,8 hPa 0,0 l/m 10,8 km/h (2 Bft) S-SW22.5 200 0 min 13,2 klux 90 W/m
03.11.2016 12:20 8,1 C 8,5 C 84 % 1020,8 hPa 0,0 l/m 11,3 km/h (2 Bft) S22.5 190 0 min 13,2 klux 90 W/m
03.11.2016 12:25 8,1 C 8,6 C 84 % 1020,8 hPa 0,0 l/m 12,1 km/h (2 Bft) S-SW22.5 205 0 min 13,2 klux 90 W/m
03.11.2016 12:30 8,2 C 8,6 C 84 % 1020,8 hPa 0,0 l/m 14,6 km/h (3 Bft) S-SW45 195 0 min 13,2 klux 90 W/m
03.11.2016 12:35 8,4 C 8,6 C 84 % 1020,8 hPa 0,0 l/m 15,0 km/h (3 Bft) S-SW45 205 0 min 15,4 klux 105 W/m
03.11.2016 12:39 8,3 C 8,4 C 83 % 1020,8 hPa 0,0 l/m 20,6 km/h (4 Bft) S-SW45 210 0 min 15,0 klux 103 W/m
03.11.2016 12:44 8,4 C 8,4 C 83 % 1020,8 hPa 0,0 l/m 16,5 km/h (3 Bft) SW22.5 230 0 min 15,0 klux 103 W/m
03.11.2016 12:49 8,5 C 8,4 C 83 % 1020,8 hPa 0,0 l/m 14,3 km/h (3 Bft) SW45 220 0 min 11,8 klux 81 W/m
03.11.2016 12:55 8,5 C 8,4 C 83 % 1020,8 hPa 0,0 l/m 17,4 km/h (3 Bft) SW45 215 0 min 11,8 klux 81 W/m
03.11.2016 13:00 8,6 C 8,5 C 83 % 1020,8 hPa 0,0 l/m 12,8 km/h (3 Bft) SW45 220 0 min 11,8 klux 81 W/m
03.11.2016 13:05 8,6 C 8,7 C 82 % 1020,8 hPa 0,0 l/m 10,6 km/h (2 Bft) SW22.5 220 0 min 14,6 klux 100 W/m
03.11.2016 13:09 8,8 C 8,8 C 83 % 1019,8 hPa 0,0 l/m 12,6 km/h (3 Bft) SW45 215 4 min 38,1 klux 261 W/m
03.11.2016 13:14 8,7 C 8,7 C 82 % 1019,8 hPa 0,0 l/m 15,7 km/h (3 Bft) S-SW45 205 5 min 38,1 klux 261 W/m
03.11.2016 13:19 8,6 C 8,5 C 82 % 1019,8 hPa 0,0 l/m 18,0 km/h (3 Bft) W-SW22.5 250 0 min 11,9 klux 81 W/m
03.11.2016 13:24 8,8 C 8,9 C 82 % 1019,8 hPa 0,0 l/m 14,8 km/h (3 Bft) W-SW45 240 0 min 14,7 klux 101 W/m
03.11.2016 13:30 8,9 C 9,1 C 81 % 1019,8 hPa 0,0 l/m 16,0 km/h (3 Bft) SW45 220 0 min 14,7 klux 101 W/m
03.11.2016 13:35 9,1 C 9,0 C 81 % 1019,8 hPa 0,0 l/m 14,6 km/h (3 Bft) SW22.5 220 0 min 15,4 klux 105 W/m
03.11.2016 13:40 9,1 C 9,0 C 80 % 1019,8 hPa 0,0 l/m 12,6 km/h (3 Bft) SW22.5 220 5 min 34,4 klux 235 W/m
03.11.2016 13:45 9,2 C 9,2 C 81 % 1019,8 hPa 0,0 l/m 10,7 km/h (2 Bft) SW22.5 230 0 min 16,8 klux 115 W/m
03.11.2016 13:50 9,3 C 9,1 C 80 % 1019,8 hPa 0,0 l/m 15,7 km/h (3 Bft) SW45 230 0 min 12,0 klux 82 W/m
03.11.2016 13:54 9,2 C 9,1 C 79 % 1019,8 hPa 0,0 l/m 15,0 km/h (3 Bft) SW22.5 235 0 min 12,0 klux 82 W/m
03.11.2016 13:59 9,2 C 9,1 C 79 % 1019,8 hPa 0,0 l/m 9,8 km/h (2 Bft) SW22.5 230 0 min 11,5 klux 79 W/m
03.11.2016 14:05 9,3 C 9,1 C 80 % 1019,8 hPa 0,0 l/m 10,4 km/h (2 Bft) SW45 225 0 min 9,7 klux 66 W/m
03.11.2016 14:10 9,4 C 9,1 C 80 % 1019,8 hPa 0,0 l/m 14,3 km/h (3 Bft) SW22.5 230 0 min 9,7 klux 66 W/m
03.11.2016 14:15 9,4 C 9,1 C 79 % 1019,8 hPa 0,0 l/m 9,7 km/h (2 Bft) SW22.5 230 0 min 10,2 klux 70 W/m
03.11.2016 14:20 9,4 C 9,1 C 79 % 1019,8 hPa 0,0 l/m 11,6 km/h (2 Bft) SW45 220 0 min 10,9 klux 75 W/m
03.11.2016 14:24 9,4 C 9,2 C 79 % 1019,8 hPa 0,0 l/m 12,7 km/h (3 Bft) W-SW22.5 255 0 min 10,9 klux 75 W/m
03.11.2016 14:29 9,4 C 9,1 C 79 % 1019,8 hPa 0,0 l/m 13,5 km/h (3 Bft) W-SW22.5 250 0 min 10,1 klux 69 W/m
03.11.2016 14:34 9,4 C 9,2 C 79 % 1019,8 hPa 0,0 l/m 14,5 km/h (3 Bft) W-SW22.5 255 0 min 10,1 klux 69 W/m
03.11.2016 14:40 9,4 C 9,2 C 79 % 1019,8 hPa 0,0 l/m 16,5 km/h (3 Bft) SW22.5 235 0 min 10,1 klux 69 W/m
03.11.2016 14:45 9,4 C 9,2 C 78 % 1019,8 hPa 0,0 l/m 16,5 km/h (3 Bft) SW22.5 230 0 min 10,1 klux 69 W/m
03.11.2016 14:50 9,4 C 9,1 C 78 % 1019,8 hPa 0,0 l/m 17,0 km/h (3 Bft) W-SW45 245 0 min 10,1 klux 69 W/m
03.11.2016 14:55 9,4 C 9,1 C 79 % 1019,8 hPa 0,0 l/m 14,7 km/h (3 Bft) W-SW22.5 240 0 min 11,5 klux 79 W/m
03.11.2016 15:00 9,4 C 9,4 C 79 % 1019,8 hPa 0,0 l/m 11,8 km/h (2 Bft) W-SW22.5 245 0 min 12,0 klux 82 W/m
03.11.2016 15:04 9,4 C 9,4 C 80 % 1019,8 hPa 0,0 l/m 14,1 km/h (3 Bft) W-SW22.5 245 0 min 11,6 klux 79 W/m
03.11.2016 15:10 9,4 C 9,4 C 79 % 1019,8 hPa 0,0 l/m 11,1 km/h (2 Bft) SW22.5 225 0 min 11,6 klux 79 W/m
03.11.2016 15:15 9,4 C 9,4 C 79 % 1019,8 hPa 0,0 l/m 16,0 km/h (3 Bft) W-SW45 245 0 min 8,78 klux 60 W/m
03.11.2016 15:20 9,3 C 9,4 C 79 % 1019,8 hPa 0,0 l/m 13,3 km/h (3 Bft) SW45 230 0 min 8,69 klux 59 W/m
03.11.2016 15:25 9,2 C 9,4 C 79 % 1019,8 hPa 0,0 l/m 15,1 km/h (3 Bft) W-SW22.5 245 0 min 8,69 klux 59 W/m
03.11.2016 15:30 9,2 C 9,5 C 80 % 1019,8 hPa 0,0 l/m 12,0 km/h (2 Bft) W-SW22.5 240 0 min 8,69 klux 59 W/m
03.11.2016 15:34 9,2 C 9,4 C 80 % 1019,8 hPa 0,0 l/m 13,0 km/h (3 Bft) SW22.5 230 0 min 6,62 klux 45 W/m
03.11.2016 15:39 9,2 C 9,4 C 80 % 1019,8 hPa 0,0 l/m 10,6 km/h (2 Bft) SW22.5 235 0 min 6,62 klux 45 W/m
03.11.2016 15:44 9,3 C 9,4 C 80 % 1019,8 hPa 0,0 l/m 11,6 km/h (2 Bft) SW22.5 230 0 min 6,54 klux 45 W/m
03.11.2016 15:49 9,3 C 9,5 C 80 % 1019,8 hPa 0,0 l/m 9,9 km/h (2 Bft) SW22.5 230 0 min 6,42 klux 44 W/m
03.11.2016 15:55 9,3 C 9,5 C 80 % 1019,8 hPa 0,0 l/m 10,3 km/h (2 Bft) SW 225 0 min 6,42 klux 44 W/m
03.11.2016 16:00 9,2 C 9,4 C 80 % 1019,8 hPa 0,0 l/m 14,1 km/h (3 Bft) SW22.5 225 0 min 6,42 klux 44 W/m
03.11.2016 16:04 9,2 C 9,4 C 80 % 1019,8 hPa 0,0 l/m 13,9 km/h (3 Bft) SW45 220 0 min 5,09 klux 35 W/m
03.11.2016 16:09 9,2 C 9,4 C 80 % 1018,8 hPa 0,0 l/m 15,4 km/h (3 Bft) SW22.5 215 0 min 4,87 klux 33 W/m
03.11.2016 16:14 9,2 C 9,4 C 80 % 1018,8 hPa 0,0 l/m 11,3 km/h (2 Bft) SW22.5 220 0 min 4,43 klux 30 W/m
03.11.2016 16:19 9,2 C 9,4 C 80 % 1018,8 hPa 0,0 l/m 12,1 km/h (2 Bft) SW22.5 220 0 min 4,25 klux 29 W/m
03.11.2016 16:25 9,2 C 9,4 C 80 % 1018,8 hPa 0,0 l/m 13,1 km/h (3 Bft) SW22.5 225 0 min 3,74 klux 26 W/m
03.11.2016 16:30 9,1 C 9,4 C 80 % 1018,8 hPa 0,0 l/m 12,1 km/h (2 Bft) SW22.5 220 0 min 2,95 klux 20 W/m
03.11.2016 16:35 9,0 C 9,4 C 80 % 1018,8 hPa 0,0 l/m 11,5 km/h (2 Bft) SW22.5 230 0 min 2,21 klux 15 W/m
03.11.2016 16:40 8,8 C 9,3 C 81 % 1018,8 hPa 0,0 l/m 10,7 km/h (2 Bft) SW22.5 220 0 min 1,94 klux 13 W/m
03.11.2016 16:45 8,8 C 9,3 C 81 % 1018,8 hPa 0,0 l/m 12,6 km/h (3 Bft) SW22.5 225 0 min 1,49 klux 10 W/m
03.11.2016 16:49 8,8 C 9,0 C 81 % 1018,8 hPa 0,0 l/m 13,8 km/h (3 Bft) SW22.5 225 0 min 851 lux 6 W/m
03.11.2016 16:54 8,7 C 8,9 C 81 % 1018,8 hPa 0,0 l/m 13,3 km/h (3 Bft) SW22.5 220 0 min 851 lux 6 W/m
03.11.2016 16:59 8,7 C 8,9 C 81 % 1018,8 hPa 0,0 l/m 10,5 km/h (2 Bft) SW22.5 215 0 min 420 lux 0 W/m
03.11.2016 17:05 8,7 C 8,9 C 81 % 1018,8 hPa 0,0 l/m 8,3 km/h (2 Bft) SW 215 0 min 420 lux 0 W/m
03.11.2016 17:10 8,7 C 9,0 C 81 % 1018,8 hPa 0,0 l/m 11,6 km/h (2 Bft) SW 225 0 min 420 lux 0 W/m
03.11.2016 17:15 8,7 C 9,0 C 81 % 1018,8 hPa 0,0 l/m 4,8 km/h (1 Bft) SW 225 0 min 92 lux 0 W/m
03.11.2016 17:19 8,7 C 8,9 C 81 % 1018,8 hPa 0,0 l/m 2,0 km/h (1 Bft) SW 225 0 min 97 lux 0 W/m
03.11.2016 17:24 8,6 C 9,0 C 81 % 1018,8 hPa 0,0 l/m 6,7 km/h (2 Bft) S-SW22.5 205 0 min 33 lux 0 W/m
03.11.2016 17:29 8,5 C 9,1 C 81 % 1018,8 hPa 0,0 l/m 5,4 km/h (2 Bft) S-SW 205 0 min 33 lux 0 W/m
03.11.2016 17:35 8,5 C 9,0 C 81 % 1018,8 hPa 0,0 l/m 6,1 km/h (2 Bft) S-SW 195 0 min 9 lux 0 W/m
03.11.2016 17:40 8,5 C 9,0 C 81 % 1018,8 hPa 0,0 l/m 5,3 km/h (1 Bft) S-SW 195 0 min 9 lux 0 W/m
03.11.2016 17:45 8,4 C 9,1 C 81 % 1018,8 hPa 0,0 l/m 5,0 km/h (1 Bft) S-SW 195 0 min 9 lux 0 W/m
03.11.2016 17:50 8,4 C 8,8 C 81 % 1018,8 hPa 0,0 l/m 7,9 km/h (2 Bft) S 190 0 min 0 lux 0 W/m
03.11.2016 17:55 8,4 C 8,9 C 81 % 1018,8 hPa 0,0 l/m 8,9 km/h (2 Bft) S22.5 185 0 min 0 lux 0 W/m
03.11.2016 17:59 8,4 C 8,7 C 81 % 1018,8 hPa 0,0 l/m 6,4 km/h (2 Bft) S-SW 195 0 min 0 lux 0 W/m
03.11.2016 18:05 8,4 C 8,8 C 82 % 1018,8 hPa 0,0 l/m 7,2 km/h (2 Bft) S-SW 195 0 min 0 lux 0 W/m
03.11.2016 18:10 8,4 C 8,7 C 82 % 1018,8 hPa 0,0 l/m 7,0 km/h (2 Bft) S 185 0 min 0 lux 0 W/m
03.11.2016 18:15 8,4 C 8,8 C 82 % 1018,8 hPa 0,0 l/m 7,8 km/h (2 Bft) S22.5 185 0 min 0 lux 0 W/m
03.11.2016 18:20 8,4 C 8,9 C 82 % 1018,8 hPa 0,0 l/m 5,5 km/h (2 Bft) S-SW22.5 205 0 min 0 lux 0 W/m
03.11.2016 18:25 8,4 C 8,8 C 82 % 1018,8 hPa 0,0 l/m 6,2 km/h (2 Bft) S-SO 155 0 min 0 lux 0 W/m
03.11.2016 18:29 8,4 C 8,8 C 82 % 1018,8 hPa 0,0 l/m 5,9 km/h (2 Bft) S-SO 165 0 min 0 lux 0 W/m
03.11.2016 18:34 8,3 C 8,8 C 82 % 1018,8 hPa 0,0 l/m 7,0 km/h (2 Bft) S-SO 160 0 min 0 lux 0 W/m
03.11.2016 18:39 8,3 C 8,6 C 82 % 1018,8 hPa 0,0 l/m 8,5 km/h (2 Bft) S-SO22.5 160 0 min 0 lux 0 W/m
03.11.2016 18:45 8,2 C 8,6 C 82 % 1018,8 hPa 0,0 l/m 9,7 km/h (2 Bft) S-SO22.5 160 0 min 0 lux 0 W/m
03.11.2016 18:50 8,2 C 8,5 C 82 % 1018,8 hPa 0,0 l/m 10,4 km/h (2 Bft) S-SO22.5 160 0 min 0 lux 0 W/m
03.11.2016 18:55 8,2 C 8,6 C 83 % 1018,8 hPa 0,0 l/m 10,4 km/h (2 Bft) S-SO22.5 160 0 min 0 lux 0 W/m
03.11.2016 19:00 8,2 C 8,6 C 83 % 1018,8 hPa 0,0 l/m 7,6 km/h (2 Bft) S-SO22.5 160 0 min 0 lux 0 W/m
03.11.2016 19:04 8,2 C 8,5 C 83 % 1018,8 hPa 0,0 l/m 7,2 km/h (2 Bft) S22.5 170 0 min 0 lux 0 W/m
03.11.2016 19:09 8,2 C 8,6 C 83 % 1018,8 hPa 0,0 l/m 7,3 km/h (2 Bft) S-SO22.5 165 0 min 0 lux 0 W/m
03.11.2016 19:15 8,2 C 8,6 C 83 % 1018,8 hPa 0,0 l/m 7,4 km/h (2 Bft) S22.5 170 0 min 0 lux 0 W/m
03.11.2016 19:20 8,1 C 8,6 C 83 % 1018,8 hPa 0,0 l/m 6,2 km/h (2 Bft) S 180 0 min 0 lux 0 W/m
03.11.2016 19:25 8,1 C 8,6 C 83 % 1018,8 hPa 0,0 l/m 10,8 km/h (2 Bft) S22.5 180 0 min 0 lux 0 W/m
03.11.2016 19:30 8,1 C 8,6 C 83 % 1018,8 hPa 0,0 l/m 9,4 km/h (2 Bft) S22.5 180 0 min 0 lux 0 W/m
03.11.2016 19:35 8,1 C 8,6 C 83 % 1018,8 hPa 0,0 l/m 7,4 km/h (2 Bft) S22.5 175 0 min 0 lux 0 W/m
03.11.2016 19:39 8,1 C 8,6 C 83 % 1018,8 hPa 0,0 l/m 8,3 km/h (2 Bft) S-SO22.5 165 0 min 0 lux 0 W/m
03.11.2016 19:44 8,0 C 8,5 C 83 % 1018,8 hPa 0,0 l/m 8,6 km/h (2 Bft) S-SO22.5 165 0 min 0 lux 0 W/m
03.11.2016 19:49 8,0 C 8,6 C 83 % 1018,8 hPa 0,0 l/m 9,2 km/h (2 Bft) S-SO22.5 160 0 min 0 lux 0 W/m
03.11.2016 19:55 8,0 C 8,5 C 83 % 1018,8 hPa 0,0 l/m 8,3 km/h (2 Bft) S22.5 170 0 min 0 lux 0 W/m
03.11.2016 20:00 8,0 C 8,4 C 83 % 1018,8 hPa 0,0 l/m 8,9 km/h (2 Bft) S22.5 175 0 min 0 lux 0 W/m
03.11.2016 20:05 8,0 C 8,4 C 83 % 1018,8 hPa 0,0 l/m 8,7 km/h (2 Bft) S 170 0 min 0 lux 0 W/m
03.11.2016 20:09 8,0 C 8,5 C 83 % 1018,8 hPa 0,0 l/m 8,3 km/h (2 Bft) S22.5 170 0 min 0 lux 0 W/m
03.11.2016 20:14 7,9 C 8,4 C 83 % 1018,8 hPa 0,0 l/m 7,9 km/h (2 Bft) S 175 0 min 0 lux 0 W/m
03.11.2016 20:19 7,9 C 8,4 C 83 % 1018,8 hPa 0,0 l/m 8,0 km/h (2 Bft) S 170 0 min 0 lux 0 W/m
03.11.2016 20:25 7,8 C 8,4 C 83 % 1018,8 hPa 0,0 l/m 5,4 km/h (2 Bft) S 170 0 min 0 lux 0 W/m
03.11.2016 20:30 7,8 C 8,4 C 83 % 1018,8 hPa 0,0 l/m 7,3 km/h (2 Bft) S 170 0 min 0 lux 0 W/m
03.11.2016 20:35 7,8 C 8,2 C 83 % 1018,8 hPa 0,0 l/m 9,0 km/h (2 Bft) S-SO22.5 160 0 min 0 lux 0 W/m
03.11.2016 20:40 7,7 C 8,3 C 83 % 1018,8 hPa 0,0 l/m 9,1 km/h (2 Bft) S-SO 165 0 min 0 lux 0 W/m
03.11.2016 20:45 7,7 C 8,2 C 83 % 1018,8 hPa 0,0 l/m 7,9 km/h (2 Bft) S-SO 165 0 min 0 lux 0 W/m
03.11.2016 20:49 7,7 C 8,2 C 83 % 1018,8 hPa 0,0 l/m 10,4 km/h (2 Bft) S-SO22.5 165 0 min 0 lux 0 W/m
03.11.2016 20:54 7,8 C 8,3 C 83 % 1018,8 hPa 0,0 l/m 12,2 km/h (2 Bft) S 170 0 min 0 lux 0 W/m
03.11.2016 20:59 7,8 C 8,2 C 83 % 1017,8 hPa 0,0 l/m 11,6 km/h (2 Bft) S22.5 170 0 min 0 lux 0 W/m
03.11.2016 21:05 7,8 C 8,2 C 83 % 1017,8 hPa 0,0 l/m 11,1 km/h (2 Bft) S22.5 170 0 min 0 lux 0 W/m
03.11.2016 21:10 7,8 C 8,2 C 83 % 1017,8 hPa 0,0 l/m 12,5 km/h (2 Bft) S-SO22.5 160 0 min 0 lux 0 W/m
03.11.2016 21:15 7,8 C 8,3 C 83 % 1017,8 hPa 0,0 l/m 12,0 km/h (2 Bft) S22.5 170 0 min 0 lux 0 W/m
03.11.2016 21:19 7,8 C 8,2 C 83 % 1017,8 hPa 0,0 l/m 10,5 km/h (2 Bft) S22.5 170 0 min 0 lux 0 W/m
03.11.2016 21:24 7,7 C 8,2 C 83 % 1017,8 hPa 0,0 l/m 10,3 km/h (2 Bft) S22.5 170 0 min 0 lux 0 W/m
03.11.2016 21:29 7,7 C 8,2 C 83 % 1017,8 hPa 0,0 l/m 12,8 km/h (3 Bft) S22.5 175 0 min 0 lux 0 W/m
03.11.2016 21:35 7,7 C 8,3 C 83 % 1017,8 hPa 0,0 l/m 10,8 km/h (2 Bft) S 180 0 min 0 lux 0 W/m
03.11.2016 21:40 7,7 C 8,2 C 83 % 1018,8 hPa 0,0 l/m 13,0 km/h (3 Bft) S22.5 180 0 min 0 lux 0 W/m
03.11.2016 21:45 7,7 C 8,2 C 83 % 1018,8 hPa 0,0 l/m 12,2 km/h (2 Bft) S 185 0 min 0 lux 0 W/m
03.11.2016 21:50 7,7 C 8,3 C 82 % 1018,8 hPa 0,0 l/m 9,8 km/h (2 Bft) S22.5 180 0 min 0 lux 0 W/m
03.11.2016 21:55 7,7 C 8,3 C 82 % 1018,8 hPa 0,0 l/m 8,1 km/h (2 Bft) S 180 0 min 0 lux 0 W/m
03.11.2016 21:59 7,6 C 8,3 C 82 % 1018,8 hPa 0,0 l/m 12,8 km/h (3 Bft) S22.5 175 0 min 0 lux 0 W/m
03.11.2016 22:05 7,6 C 8,4 C 82 % 1017,8 hPa 0,0 l/m 11,6 km/h (2 Bft) S-SW22.5 195 0 min 0 lux 0 W/m
03.11.2016 22:10 7,6 C 8,3 C 82 % 1017,8 hPa 0,0 l/m 13,1 km/h (3 Bft) S22.5 185 0 min 0 lux 0 W/m
03.11.2016 22:15 7,6 C 8,2 C 82 % 1017,8 hPa 0,0 l/m 12,8 km/h (3 Bft) S22.5 180 0 min 0 lux 0 W/m
03.11.2016 22:20 7,5 C 8,2 C 82 % 1017,8 hPa 0,0 l/m 15,2 km/h (3 Bft) S22.5 170 0 min 0 lux 0 W/m
03.11.2016 22:25 7,5 C 8,3 C 82 % 1017,8 hPa 0,0 l/m 8,9 km/h (2 Bft) S22.5 180 0 min 0 lux 0 W/m
03.11.2016 22:29 7,5 C 8,3 C 82 % 1017,8 hPa 0,0 l/m 9,1 km/h (2 Bft) S22.5 180 0 min 0 lux 0 W/m
03.11.2016 22:34 7,4 C 8,3 C 82 % 1017,8 hPa 0,0 l/m 11,2 km/h (2 Bft) S22.5 190 0 min 0 lux 0 W/m
03.11.2016 22:39 7,4 C 8,3 C 82 % 1017,8 hPa 0,0 l/m 12,2 km/h (2 Bft) S-SO22.5 165 0 min 0 lux 0 W/m
03.11.2016 22:45 7,3 C 8,2 C 82 % 1017,8 hPa 0,0 l/m 12,0 km/h (2 Bft) S-SO22.5 165 0 min 0 lux 0 W/m
03.11.2016 22:50 7,2 C 8,1 C 83 % 1017,8 hPa 0,0 l/m 10,6 km/h (2 Bft) S-SO22.5 160 0 min 0 lux 0 W/m
03.11.2016 22:55 7,2 C 8,1 C 83 % 1017,8 hPa 0,0 l/m 6,8 km/h (2 Bft) S 170 0 min 0 lux 0 W/m
03.11.2016 23:00 7,2 C 8,2 C 83 % 1017,8 hPa 0,0 l/m 8,9 km/h (2 Bft) S-SW22.5 200 0 min 0 lux 0 W/m
03.11.2016 23:04 7,2 C 8,2 C 83 % 1017,8 hPa 0,0 l/m 9,4 km/h (2 Bft) S-SW22.5 200 0 min 0 lux 0 W/m
03.11.2016 23:10 7,2 C 8,2 C 83 % 1017,8 hPa 0,0 l/m 12,4 km/h (2 Bft) S45 185 0 min 0 lux 0 W/m
03.11.2016 23:15 7,2 C 8,2 C 83 % 1017,8 hPa 0,0 l/m 9,3 km/h (2 Bft) S22.5 185 0 min 0 lux 0 W/m
03.11.2016 23:20 7,2 C 8,1 C 83 % 1017,8 hPa 0,0 l/m 9,9 km/h (2 Bft) S45 185 0 min 0 lux 0 W/m
03.11.2016 23:25 7,1 C 8,0 C 83 % 1017,8 hPa 0,0 l/m 11,1 km/h (2 Bft) S22.5 175 0 min 0 lux 0 W/m
03.11.2016 23:30 6,9 C 8,0 C 82 % 1017,8 hPa 0,0 l/m 12,9 km/h (3 Bft) S22.5 180 0 min 0 lux 0 W/m
03.11.2016 23:35 6,9 C 8,0 C 82 % 1017,8 hPa 0,0 l/m 9,9 km/h (2 Bft) S22.5 175 0 min 0 lux 0 W/m
03.11.2016 23:39 6,8 C 8,0 C 82 % 1017,8 hPa 0,0 l/m 9,5 km/h (2 Bft) S 175 0 min 0 lux 0 W/m
03.11.2016 23:44 6,8 C 7,9 C 82 % 1016,8 hPa 0,0 l/m 11,9 km/h (2 Bft) S22.5 170 0 min 0 lux 0 W/m
03.11.2016 23:49 6,7 C 8,0 C 83 % 1016,8 hPa 0,0 l/m 10,4 km/h (2 Bft) S22.5 175 0 min 0 lux 0 W/m
03.11.2016 23:55 6,7 C 8,0 C 83 % 1016,8 hPa 0,0 l/m 11,6 km/h (2 Bft) S22.5 175 0 min 0 lux 0 W/m
_ Min-Zeit 00:39 08:19 14:45 23:44 - 17:19 - - - - -
Minimum _ 5,6 C 7,2 C 78 % 1016,8 hPa - 2,0 km/h (1 Bft) - - - - -
_ Max-Zeit 14:10 00:00 03:35 08:10 00:00 12:39 - - 13:14 13:09 13:09
Maximum _ 9,4 C 9,6 C 91 % 1020,9 hPa 0,0 l/m 20,6 km/h
S-SW (4 Bft)
- - 5 min 38,1 klux 261 W/m
Durchschnitt _ 7,3 C 8,8 C 86 % 1019,5 hPa #0,0 l/m 11,7 km/h (2 Bft) SW - #14 min. 3,33 klux 58 W/m